Clarksville, TN

7:27 PM CST on December 11, 2017 (GMT -0600)
Outlaw

Weather History for KCKV - January, 2014

Change the Weather History Date:

Wednesday, January 29, 2014

  Actual Average Record
Temperature  
Mean Temperature 14 °F 36 °F  
Max Temperature 28 °F 46 °F 74 °F (1975)
Min Temperature 1 °F 26 °F -1 °F (1977)
Degree Days  
Heating Degree Days 50    
Month to date heating degree days  
Since 1 July heating degree days  
Cooling Degree Days 0    
Month to date cooling degree days  
Year to date cooling degree days  
Moisture  
Dew Point -1 °F    
Average Humidity 54    
Maximum Humidity 85    
Minimum Humidity 27    
Precipitation  
Precipitation 0.00 in 0.11 in 4.09 in (1957)
Month to date precipitation 3.10  
Year to date precipitation 3.10  
Sea Level Pressure  
Sea Level Pressure 30.41 in    
Wind  
Wind Speed 1 mph (SW)    
Max Wind Speed 7 mph    
Max Gust Speed -    
Visibility 8 miles    
Events      
T = Trace of Precipitation, MM = Missing Value Source: NWS Daily Summary

Daily Weather History Graph

Daily Weather History Graph

Search for Another Location

Airport or City:

Trip Planner

Search our weather history database for the weather conditions in past years. The results will help you decide how hot, cold, wet, or windy it might be!

Date:

Astronomy

Jan. 29, 2014 Rise Set
Actual Time 6:53 AM CST 5:12 PM CST
Civil Twilight 6:26 AM CST 5:39 PM CST
Nautical Twilight 5:55 AM CST 6:10 PM CST
Astronomical Twilight 5:24 AM CST 6:41 PM CST
Moon 5:29 AM CST (1/29) 4:11 PM CST (1/29)
Length of Visible Light 11h 13m
Length of Day
10h 18m
Waning Crescent, 2% of the Moon is Illuminated
Jan 29
Waning Crescent
Jan 30
New
Feb 6
First Quarter
Feb 14
Full
Feb 22
Last Quarter

Hourly Weather History & Observations

Time (CST) Temp. Windchill Dew Point Humidity Pressure Visibility Wind Dir Wind Speed Gust Speed Precip Events Conditions
12:52 AM 5.0 °F - -2.0 °F 73% 30.44 in 10.0 mi Calm Calm - N/A   Clear
1:52 AM 3.0 °F -4.4 °F -2.0 °F 80% 30.45 in 10.0 mi West 3.5 mph - N/A   Clear
2:52 AM 3.0 °F - -2.9 °F 76% 30.44 in 3.0 mi Calm Calm - N/A   Haze
3:52 AM 1.9 °F - -4.0 °F 76% 30.45 in 3.0 mi Calm Calm - N/A   Haze
4:26 AM 1.4 °F - -2.2 °F 85% 30.40 in 2.5 mi Calm Calm - N/A   Clear
4:52 AM 1.0 °F - -4.0 °F 79% 30.43 in 3.0 mi Calm Calm - N/A   Haze
5:52 AM 1.9 °F - -2.9 °F 80% 30.44 in 4.0 mi Calm Calm - N/A   Haze
6:52 AM 1.0 °F - -4.0 °F 79% 30.45 in 6.0 mi Calm Calm - N/A   Haze
7:52 AM 6.1 °F - 1.0 °F 80% 30.46 in 7.0 mi Calm Calm - N/A   Clear
8:52 AM 12.9 °F 6.9 °F 1.9 °F 62% 30.48 in 10.0 mi SSW 3.5 mph - N/A   Clear
9:52 AM 18.0 °F - -2.9 °F 40% 30.48 in 10.0 mi Calm Calm - N/A   Clear
10:52 AM 21.0 °F - -2.9 °F 35% 30.48 in 10.0 mi Calm Calm - N/A   Clear
11:52 AM 23.0 °F - -2.0 °F 34% 30.45 in 10.0 mi Calm Calm - N/A   Clear
12:52 PM 25.0 °F 18.1 °F -2.0 °F 31% 30.41 in 10.0 mi WNW 5.8 mph - N/A   Clear
1:52 PM 27.0 °F 20.5 °F -2.0 °F 29% 30.40 in 10.0 mi West 5.8 mph - N/A   Clear
2:52 PM 28.0 °F 20.8 °F -2.0 °F 27% 30.39 in 10.0 mi SW 6.9 mph - N/A   Clear
3:52 PM 28.0 °F 24.2 °F -2.0 °F 27% 30.38 in 10.0 mi West 3.5 mph - N/A   Clear
4:52 PM 26.1 °F - -0.9 °F 31% 30.38 in 10.0 mi Calm Calm - N/A   Clear
5:52 PM 25.0 °F - -2.0 °F 31% 30.38 in 10.0 mi Calm Calm - N/A   Clear
6:52 PM 23.0 °F 18.4 °F -0.9 °F 35% 30.38 in 10.0 mi SSW 3.5 mph - N/A   Clear
7:52 PM 19.9 °F - -0.0 °F 42% 30.37 in 10.0 mi Calm Calm - N/A   Clear
8:52 PM 15.1 °F 7.7 °F 1.9 °F 56% 30.35 in 10.0 mi SSE 4.6 mph - N/A   Clear
9:52 PM 16.0 °F - 1.9 °F 54% 30.35 in 10.0 mi Calm Calm - N/A   Clear
10:52 PM 15.1 °F - 1.9 °F 56% 30.35 in 10.0 mi Calm Calm - N/A   Clear
11:52 PM 12.0 °F 2.7 °F 1.9 °F 64% 30.33 in 10.0 mi SSE 5.8 mph - N/A   Clear